Notices

What's New in latest Release from April 7th, 2021:

- Updated Glossary, including Speed of Maximum Gust, and Total Hourly Precipitation

- Updated national and regional climate services offices contacts and prices information

- Addition of station inventory lists for 1981-2010, 1971-2000, and 1961-1990 Normals.

If you haven't already, please take our survey and provide feedback about our website: https://eccc.sondage-survey.ca/f/LanguageSelection.aspx?s=442ca660-fcf1-47c0-95a9-59707d6fd709

Hourly Data Report for November 06, 2004

SHERBROOKE A
QUEBEC

45°26'00.000" N
71°41'00.000" W
241.40 m
7028124
71610
YSC

Download Data

Hourly Data (November 2004)
Hourly Data Report for November 6, 2004
TIME
LST
Temp Definition
°C
Dew Point Definition
°C
Rel Hum Definition
%
Precip. Amount Definition
mm

Wind Dir Definition
10's deg

Wind Spd Definition
km/h
Visibility Definition
km
Stn Press Definition
kPa
Hmdx Definition


Wind Chill Definition


Weather Definition


00:00 0.1 -4.6 71   29 32 15.0 97.15      
01:00 0.0 -4.2 73   27 17 15.0 97.22   -5  
02:00 -0.2 -4.4 73   27 22 15.0 97.25   -6  
03:00 -0.6 -4.1 77   25 11 15.0 97.27   -4  
04:00 -0.1 -3.8 76   25 11 15.0 97.24   -4  
05:00 -0.4 -3.1 82   21 11 3.4 97.24   -4 Snow
06:00 -0.7 -1.9 92   22 7 2.4 97.21   -3 Snow
07:00 -0.2 -1.3 92   21 6 1.1 97.20   -2 Snow
08:00 -0.1 -0.9 94   18 6 1.2 97.14   -2 Snow
09:00 0.3 -0.5 94   21 6 1.2 97.05     Snow
10:00 1.1 0.0 92   21 9 3.2 96.97     Rain,Snow Grains
11:00 1.5 0.6 94   21 9 3.2 96.90     Moderate Rain
12:00 2.6 1.8 94   22 13 12.9 96.80     Rain
13:00 3.8 2.9 94   23 19 19.3 96.80     Cloudy
14:00 4.5 3.5 93   22 19 19.3 96.77     Rain
15:00 4.8 3.8 93   21 19 19.3 96.74     Cloudy
16:00 5.7 4.2 90   23 19 19.3 96.76     Cloudy
17:00 5.7 4.2 90   24 17 19.3 96.84     Rain Showers
18:00 5.7 4.9 95   27 26 15.0 97.02     Rain
19:00 4.0 1.3 83   29 22 15.0 97.21     Rain
20:00 3.3 -0.2 78   28 17 15.0 97.39      
21:00 2.6 -2.2 71   30 13 15.0 97.51      
22:00 2.8 -3.4 64   28 22 15.0 97.61      
23:00 1.8 -3.2 69   27 11 15.0 97.71      

Notes on Data Quality.

Legend

  • E = Estimated
  • M = Missing
  • NA = Not Available*
  • [empty] = Indicates an unobserved value
Date modified: